Flag for Germany Past Weather in Radolfzell am Bodensee, Baden-Württemberg, Germany — Yesterday and Last 2 Weeks

Now
63 °F

Clear.


Feels Like: 63 °F
Forecast: 49 / 79 °F
Wind: 3 mph from North

Location: Friedrichshafen Airport

Current Time: May 27, 2016 at 12:41:23 AM

Latest Report: May 26, 2016 at 11:50 PM


Visibility: 10 mi

Pressure: 29.95 "Hg

Humidity: 73%

Dew Point: 54 °F

Location of Radolfzell am BodenseeLocation

Past Weather in Radolfzell am Bodensee — Graph

°F

Radolfzell am Bodensee Temperature Yesterday

Maximum temperature yesterday: 77 °F (at 3:20 PM)
Minimum temperature yesterday: 52 °F (at 4:50 AM)
Average temperature yesterday: 65 °F

High & Low Weather Summary for the Past Weeks

 TemperatureHumidityPressure
High81 °F (May 22, 2:20 PM)100% (May 12, 1:20 PM)30.18 "Hg (May 12, 1:20 PM)
Low37 °F (May 16, 6:20 AM)32% (May 22, 5:20 PM)29.47 "Hg (May 12, 12:50 AM)
Average54 °F80%29.93 "Hg
* Reported May 11 11:20 PM — May 26 11:20 PM, Radolfzell am Bodensee, Weather by CustomWeather, © 2016

Note: Actual official high and low records may vary slightly from our data, if they occured in-between our weather recording intervals... More about our weather records

Advertising

Radolfzell am Bodensee Weather History for the Previous 24 Hours

Scroll right to see more
 ConditionsComfort  
Time TempWeatherWind HumidityBarometerVisibility
11:20 PM
Thu, May 26
63 °FPassing clouds.5 mph73%29.95 "HgN/A
10:50 PM64 °FPassing clouds.5 mph68%29.95 "HgN/A
10:20 PM64 °FPassing clouds.5 mph68%29.95 "HgN/A
9:50 PM66 °FPassing clouds.5 mph64%29.95 "HgN/A
9:20 PM68 °FSunny.5 mph60%29.92 "Hg10 mi
8:50 PM70 °FSunny.3 mph57%29.92 "Hg10 mi
8:20 PM72 °FPassing clouds.5 mph53%29.92 "HgN/A
7:20 PM73 °FSunny.3 mph53%29.92 "Hg10 mi
6:50 PM77 °FSunny.3 mph44%29.92 "Hg10 mi
6:20 PM77 °FPassing clouds.3 mph39%29.95 "HgN/A
5:50 PM75 °FSunny.3 mph41%29.95 "Hg10 mi
5:20 PM75 °FSunny.2 mph41%29.95 "Hg10 mi
4:50 PM75 °FSunny.5 mph41%29.95 "Hg10 mi
4:20 PM75 °FPassing clouds.6 mph44%29.95 "HgN/A
3:50 PM75 °FPassing clouds.6 mph41%29.95 "HgN/A
3:20 PM77 °FSunny.3 mph36%29.98 "Hg10 mi
2:50 PM75 °FSunny.3 mph47%29.98 "Hg10 mi
2:20 PM73 °FPassing clouds.3 mph44%29.98 "HgN/A
1:50 PM72 °FPassing clouds.6 mph50%29.98 "HgN/A
1:20 PM72 °FPassing clouds.5 mph53%29.98 "HgN/A
12:50 PM70 °FPassing clouds.6 mph53%29.98 "HgN/A
12:20 PM70 °FSunny.3 mph57%30.01 "Hg10 mi
11:50 AM70 °FSunny.3 mph57%30.01 "Hg10 mi
11:20 AM68 °FSunny.2 mph53%30.01 "Hg10 mi
10:50 AM66 °FSunny.3 mph64%30.01 "Hg10 mi
10:20 AM64 °FPassing clouds.5 mph68%30.01 "HgN/A
9:50 AM66 °FMild.1 mph64%30.01 "HgN/A
9:20 AM63 °FSunny.2 mph73%30.01 "Hg10 mi
8:50 AM61 °FSunny.1 mph72%30.01 "Hg10 mi
8:20 AM59 °FCool.1 mph77%30.01 "HgN/A
7:50 AM59 °FCool.No wind82%30.01 "HgN/A
7:20 AM57 °FSunny.1 mph88%30.01 "Hg10 mi
6:50 AM54 °FSunny.1 mph94%30.01 "Hg10 mi
6:20 AM52 °FClear.3 mph94%30.01 "Hg10 mi
5:50 AM54 °FClear.5 mph94%30.01 "Hg10 mi
5:20 AM54 °FPassing clouds.3 mph94%30.01 "HgN/A
4:50 AM52 °FClear.1 mph94%30.01 "Hg10 mi
4:20 AM54 °FClear.2 mph94%29.98 "Hg10 mi
3:50 AM54 °FClear.2 mph94%29.98 "Hg10 mi
3:20 AM54 °FClear.No wind94%29.98 "Hg10 mi
2:50 AM55 °FClear.1 mph88%29.98 "Hg10 mi
2:20 AM55 °FOvercast.1 mph88%29.98 "HgN/A
1:50 AM55 °FMostly cloudy.No wind88%29.98 "HgN/A
1:20 AM55 °FMostly cloudy.No wind88%29.98 "HgN/A
12:50 AM55 °FOvercast.3 mph88%29.98 "HgN/A
12:20 AM57 °FOvercast.3 mph82%29.98 "HgN/A
Weather by CustomWeather, © 2016

See weather overviewHow to use our weather pages